Wind_Speed
4 7 6 6 3 1 0 2 4 5 4 5 4 9 13 14 11 8 6 4 6 7 10 13 24 27 28 32 32 34 37 37 36 34 33 36 37 36 37 37 34 35 36 32
6 6 5 4 1 3 3 4 5 7 6 6 7 11 9 9 10 10 5 5 4 6 6 11 12 21 22 31 36 34 36 38 39 40 38 31 37 36 36 36 37 36 37 35
4 5 3 4 4 6 2 3 4 4 8 2 11 4 7 5 9 17 11 9 10 8 11 6 11 11 22 27 34 36 41 38 39 34 32 28 25 28 32 36 38 39 38 35
2 4 6 3 5 8 4 5 5 6 6 3 2 3 5 7 12 17 16 15 14 16 16 14 21 23 14 25 30 33 37 36 39 34 34 34 29 26 29 33 39 39 38 38
2 4 6 4 3 5 2 6 5 1 2 3 4 3 5 7 9 16 16 17 16 15 15 14 18 21 27 23 21 29 32 31 35 37 36 36 30 30 28 26 35 39 40 39
3 4 2 2 4 2 6 5 4 3 3 3 3 3 4 4 5 9 15 16 16 17 16 18 20 20 24 29 25 16 23 34 35 36 40 37 32 28 28 31 32 37 40 42
6 3 2 2 4 4 10 5 3 5 4 3 1 2 0 2 3 6 12 16 17 14 15 17 17 23 20 24 31 28 20 25 32 35 37 37 35 33 32 32 33 30 33 36
5 6 6 5 3 3 5 4 2 1 3 4 3 3 4 0 2 7 10 12 14 16 15 15 20 23 23 19 23 30 27 22 25 33 36 37 39 35 35 31 31 31 32 37
3 4 4 4 2 2 4 3 2 0 1 1 3 1 3 15 9 15 21 18 18 19 16 17 23 23 24 24 21 23 29 31 24 31 35 35 35 34 31 31 30 31 31 30
2 3 2 5 2 3 1 4 1 2 3 4 4 3 5 17 20 18 19 17 16 16 17 15 19 22 22 23 23 19 19 25 30 29 36 33 33 33 34 31 31 30 32 33
0 3 6 2 4 3 2 2 2 2 2 2 2 2 5 9 12 14 16 17 18 16 16 14 17 20 20 20 23 23 21 21 18 20 29 30 28 29 31 30 32 37 36 34
0 1 2 6 5 2 1 2 3 1 3 2 2 1 5 6 9 8 11 12 12 11 13 13 17 18 21 23 24 23 23 21 10 4 18 18 18 23 29 29 30 30 33 33
2 1 3 6 4 4 2 1 1 2 2 3 2 3 4 5 6 7 9 10 9 11 11 12 17 21 24 26 24 23 25 22 15 15 16 14 8 6 4 11 12 16 22 31
4 1 5 5 5 1 4 2 1 2 1 3 2 3 8 7 8 8 9 10 9 10 12 13 14 21 27 27 25 24 25 23 21 26 27 25 20 14 12 11 7 3 5 3
2 2 1 7 9 6 11 9 5 3 4 3 3 2 1 3 5 6 7 7 8 11 14 14 15 20 24 28 29 25 22 27 26 28 33 29 24 22 21 23 19 18 17 17
1 2 3 4 3 5 6 7 7 3 4 4 4 3 6 6 5 4 5 7 8 10 11 12 16 23 26 26 24 24 25 25 27 31 32 27 27 24 22 25 22 24 22 22
2 2 2 4 4 7 4 5 7 4 4 2 5 7 5 4 4 3 4 5 7 9 10 12 13 17 22 25 26 24 20 24 25 31 30 26 26 24 24 24 21 23 22 20
3 3 1 3 4 3 5 2 4 4 5 7 6 4 8 7 3 1 0 1 4 5 7 9 12 14 17 20 24 25 26 27 27 26 27 28 25 25 22 23 24 24 24 24
3 3 1 1 2 6 2 5 7 6 5 11 10 8 10 7 3 5 4 3 3 1 4 8 11 12 14 15 15 17 22 26 29 29 27 25 22 25 21 26 25 23 23 25
2 4 2 1 2 5 5 3 4 4 4 13 12 9 7 4 2 4 6 5 5 1 2 6 9 11 14 16 17 19 21 23 24 22 22 21 23 23 22 25 26 23 22 23
4 3 4 2 3 7 5 6 5 4 5 10 13 8 8 5 5 3 6 4 4 2 3 3 5 9 13 14 16 20 22 24 20 20 21 22 22 23 22 21 25 22 22 24
7 8 4 4 1 7 7 4 7 5 2 8 8 8 7 6 5 6 6 5 5 4 2 0 2 7 11 14 16 18 21 18 17 18 20 21 22 22 20 20 19 20 19 19
3 7 5 9 6 3 15 5 7 6 5 6 7 6 7 7 6 6 5 6 7 6 5 3 1 5 9 12 14 16 16 15 16 18 19 19 20 22 21 19 18 19 20 20
5 4 3 3 5 11 11 9 4 7 7 6 6 7 8 7 7 6 4 6 8 8 9 7 3 3 6 9 11 12 11 12 13 16 17 18 18 18 20 20 19 21 22 20
5 6 6 6 7 4 10 11 11 8 6 6 6 8 9 8 7 7 6 9 10 10 10 8 6 4 3 5 7 8 11 10 12 13 15 16 16 16 14 16 15 15 17 18
6 8 6 8 9 7 6 10 13 14 13 11 10 7 8 13 8 10 10 11 12 13 12 11 8 7 5 4 4 5 7 9 10 11 12 10 9 9 11 11 13 10 9 14
Wind_Direction
9 67 38 355 46 142 244 311 294 269 304 320 336 307 294 293 302 286 288 292 299 311 296 262 237 223 216 210 205 206 202 202 195 192 193 200 206 210 215 215 211 212 208 208
36 57 341 327 340 17 356 329 317 296 1 352 347 294 293 292 271 271 255 280 301 306 322 308 275 230 217 217 214 206 206 202 202 200 199 201 203 209 214 216 214 214 211 212
85 32 30 32 354 360 318 6 346 307 336 62 350 307 341 330 16 38 25 7 10 356 347 338 302 258 225 218 216 213 214 208 203 198 196 200 204 205 206 212 212 211 214 215
24 6 31 349 50 5 326 341 323 340 21 328 54 261 337 348 27 30 18 17 9 6 8 14 9 347 301 231 224 221 219 213 212 203 201 196 198 201 202 210 213 213 215 218
272 9 10 18 356 334 299 292 287 259 286 48 333 74 290 7 12 359 357 359 2 2 6 2 1 351 360 4 262 239 237 228 219 206 205 200 206 208 210 209 217 217 216 218
262 296 345 310 318 1 309 347 350 32 48 36 265 121 353 22 335 335 346 354 352 351 350 347 352 359 355 348 356 322 253 239 235 221 211 208 207 207 207 204 213 218 220 221
341 342 324 13 1 5 24 33 354 8 17 194 76 39 263 81 15 4 339 338 342 348 346 342 347 346 349 345 337 337 335 252 240 227 217 212 212 208 211 211 212 216 215 216
32 342 359 346 61 338 349 1 77 318 356 288 283 235 135 269 82 3 343 335 340 340 341 337 336 336 335 335 331 327 325 317 254 228 222 220 220 217 217 217 218 221 218 218
15 288 303 54 10 41 345 52 -0 136 54 346 279 -0 263 354 0 360 2 349 341 340 338 337 333 326 329 328 329 320 318 309 295 237 229 219 220 215 217 220 221 223 223 222
245 344 278 305 67 33 108 323 51 17 32 317 298 337 330 350 347 345 345 344 344 343 340 337 333 333 331 330 329 326 315 303 292 243 229 224 222 219 222 221 222 226 232 228
107 108 291 9 27 11 351 35 278 283 189 191 301 304 9 345 331 332 343 346 348 344 344 337 336 338 338 339 345 339 340 328 306 242 224 219 222 221 225 228 227 230 235 237
289 134 274 231 277 313 191 125 355 345 326 233 166 271 352 342 331 340 343 352 342 335 336 330 339 353 355 355 357 348 355 352 350 253 218 209 215 221 226 227 233 233 236 236
192 24 355 351 1 357 99 158 103 241 234 236 205 279 359 4 359 1 345 337 331 330 338 342 355 7 4 2 355 0 8 4 16 83 98 110 111 132 140 192 217 234 234 239
109 177 163 199 214 136 282 242 149 223 154 295 257 308 10 16 8 353 347 344 340 344 352 358 3 9 3 360 357 6 14 17 27 63 70 69 64 65 69 76 96 95 70 139
103 197 144 261 270 270 262 265 236 205 250 194 247 194 1 305 319 309 304 326 344 354 358 359 2 5 3 0 357 1 16 31 33 50 60 57 64 67 64 73 68 70 63 57
332 256 64 299 343 334 289 260 243 205 231 261 182 235 218 250 272 305 314 343 358 354 353 357 5 359 0 355 351 360 15 29 40 51 54 52 59 56 51 65 63 64 60 53
208 91 44 273 330 307 328 235 197 182 205 203 208 221 190 257 265 293 328 348 348 349 359 0 1 351 348 349 352 3 6 38 42 49 51 52 53 48 45 50 44 52 47 46
176 122 114 262 2 13 237 157 172 164 207 216 247 257 224 245 252 187 333 270 326 339 354 355 355 353 358 7 15 16 26 37 42 41 43 52 45 51 46 49 47 46 44 41
212 123 301 118 226 285 317 200 188 190 258 188 214 224 236 247 261 257 191 206 209 217 330 348 357 5 8 22 32 33 36 43 42 41 41 49 44 44 36 44 40 37 38 38
140 84 134 78 163 221 240 175 177 163 282 184 187 201 225 178 194 246 197 186 193 179 39 17 9 19 22 22 35 40 40 41 41 44 49 54 56 52 38 42 40 36 39 42
158 169 202 235 229 284 228 155 164 88 242 173 186 191 192 198 205 170 152 182 193 157 78 47 31 26 23 29 43 48 45 40 40 49 54 55 55 54 42 38 41 36 33 33
169 153 196 184 143 288 149 82 177 206 116 172 184 189 192 206 172 177 185 167 185 180 168 121 54 41 32 35 43 47 44 42 49 57 60 61 58 57 51 47 42 36 34 28
238 190 177 194 213 240 191 182 201 169 154 182 177 193 190 184 199 190 190 174 189 190 195 201 106 48 39 37 38 43 37 44 50 55 60 62 62 58 56 45 37 35 33 29
238 176 212 57 246 223 211 231 219 188 187 177 182 179 172 189 190 201 189 184 187 194 198 196 185 79 50 43 41 43 46 54 56 59 62 64 57 53 54 53 44 41 33 26
198 130 181 264 274 311 251 231 209 204 191 171 179 186 192 180 194 190 196 200 205 204 197 201 191 138 104 66 52 52 59 65 65 65 63 61 56 54 59 58 51 51 47 38
190 184 178 217 206 179 231 212 192 187 196 191 170 176 194 193 195 192 198 202 202 200 200 198 188 173 167 119 79 74 79 69 66 70 71 66 68 56 53 46 60 63 51 41
Height
834 842 847 842 837 836 836 836 840 827 818 818 816 818 808 796 794 795 794 794 793 791 786 784 786 789 790 791 794 796 799 800 805 810 815 818 821 825 829 833 837 841 844 846
844 843 839 835 832 834 836 838 839 827 820 820 824 814 806 797 793 788 790 792 793 792 790 787 784 785 787 788 788 791 793 795 798 803 808 813 815 818 823 828 832 836 840 844
842 837 834 834 832 830 830 835 838 837 831 824 819 810 810 799 795 792 793 795 797 797 795 794 788 783 783 784 785 787 789 791 794 798 805 809 814 817 820 823 826 829 834 838
844 840 839 835 830 835 841 836 835 835 842 844 827 835 812 810 805 805 809 809 808 803 799 797 795 789 788 782 782 783 785 789 792 796 799 802 804 809 811 816 821 824 828 832
849 846 844 842 842 839 837 836 836 834 832 846 836 854 820 817 818 820 819 816 814 811 808 805 802 797 791 787 785 780 783 786 788 793 795 797 802 803 808 812 816 819 821 825
852 847 844 842 842 840 838 834 839 836 839 886 838 844 840 842 844 836 827 824 820 815 811 807 805 801 795 789 786 784 783 779 782 785 789 792 795 800 803 803 807 811 816 819
859 850 845 842 844 841 847 860 898 885 889 875 833 841 840 843 845 844 839 832 825 822 816 809 804 800 799 794 788 785 782 780 779 779 783 786 790 793 797 798 800 807 808 810
870 873 854 847 847 849 851 848 864 884 871 866 838 832 845 841 842 842 841 837 829 823 819 814 808 804 800 797 792 785 781 779 778 777 776 781 783 787 789 792 796 799 801 802
888 884 859 852 851 852 851 859 852 857 888 872 847 831 845 834 839 837 833 832 829 825 820 815 811 805 800 794 790 786 780 774 773 773 773 773 777 781 784 785 790 794 796 796
880 889 873 857 854 857 855 855 855 866 886 887 864 856 849 845 842 841 841 837 833 828 822 817 812 806 799 794 787 783 779 772 765 765 766 768 771 774 778 781 784 786 787 791
874 880 876 868 871 858 853 857 852 851 855 871 877 864 858 859 856 851 848 842 837 831 825 819 813 806 800 792 785 779 774 767 760 758 760 763 768 771 774 776 778 780 783 782
870 871 881 883 868 857 853 860 858 857 856 860 860 856 862 861 859 856 853 847 842 837 830 822 815 807 799 791 784 780 772 767 762 756 757 761 765 769 770 772 774 775 776 778
870 870 891 881 870 867 872 856 856 862 863 858 849 868 862 862 861 858 854 849 844 837 830 823 814 806 800 793 789 782 774 772 766 757 757 758 763 766 768 767 768 769 771 773
870 874 888 881 869 861 866 868 858 860 884 867 858 869 858 861 858 856 853 849 844 839 832 824 816 810 805 799 793 786 781 777 771 762 761 763 767 770 770 768 766 765 767 767
869 892 890 879 869 865 858 857 856 860 861 868 870 864 860 860 858 855 853 849 846 840 834 828 820 815 811 804 797 792 788 780 778 770 767 772 774 774 774 767 770 770 769 771
872 892 886 887 858 856 854 851 850 870 858 860 860 866 859 858 855 853 853 849 846 842 837 831 823 819 814 811 808 800 791 787 783 779 777 780 777 779 779 774 775 771 773 772
875 882 896 902 879 863 867 853 856 857 850 849 859 856 851 853 852 853 852 848 846 843 838 834 831 830 824 819 813 807 802 794 791 784 784 784 783 784 782 777 780 774 775 774
878 882 886 886 883 881 849 847 847 853 846 848 846 849 848 848 847 849 850 848 846 844 843 841 839 835 831 825 817 811 805 799 796 795 791 788 790 788 790 786 783 779 777 775
874 877 886 874 900 856 844 845 845 844 841 839 842 845 847 846 846 845 845 845 845 843 843 843 841 839 835 830 824 819 814 806 801 798 797 795 797 792 796 788 788 786 783 780
874 876 889 890 888 888 833 833 836 835 843 832 837 840 843 844 848 845 841 842 843 843 843 843 842 839 835 831 826 821 817 814 810 807 803 803 801 800 799 794 790 790 788 786
885 879 898 918 900 863 827 834 835 849 822 827 829 832 836 840 837 835 838 840 842 842 842 843 842 840 837 833 828 823 820 815 814 811 808 805 802 801 801 799 796 795 793 790
880 883 890 887 901 866 827 835 832 817 818 822 826 827 830 831 833 835 836 838 841 842 842 842 841 840 838 835 830 826 822 822 820 816 812 810 808 806 806 805 804 801 798 796
867 846 860 854 836 813 813 809 809 811 814 819 823 824 827 830 833 833 836 838 840 841 841 842 842 841 838 836 833 829 826 824 823 820 816 814 813 812 811 809 807 804 800 797
842 839 847 843 813 813 811 808 809 810 811 814 816 820 824 827 829 832 834 836 838 839 840 841 842 841 839 837 834 832 830 828 826 823 820 819 817 816 814 812 810 807 805 803
835 836 841 836 817 819 810 805 801 806 808 810 813 816 819 823 826 828 831 832 834 836 838 839 840 840 839 838 836 834 832 829 827 826 823 821 821 819 818 815 813 811 810 808
822 817 817 803 791 787 783 782 791 797 801 803 808 814 816 819 821 824 827 829 832 833 835 837 838 838 838 837 836 835 833 831 829 826 824 824 823 822 820 818 816 814 812 809